Weather in Schastlivoye

Russia / Karachay-Cherkess Republic     44°09′44″N   42°15′28″E
temp.,
°C
wind,
m/s
gust,
m/s
humid.,
%
clouds,
%
prec.,
mm/h
press.,
hPa
HPBL,
m
25 october, mon
mon2500:00+8nw5796100 2.3 1019572
03:00+3nw4697100 5.0 1024462
06:00+1w3699100 3.7 1026254
09:00+2wnw3699100 4.8 1028252
12:00+2wnw3799100 1.2 1029366
15:00+2w3599100 1.4 1030290
18:00+2wsw239491 0.1 1032235
21:000wsw22925 0.1 103229
26 october, tue
tue2600:00−1nnw00905 0.0 103210
03:00−1sse118827 0.0 103313
06:00−1sse118524 0.0 103316
09:00+3ese237312 0.0 1033352
12:00+6e33615 0.0 1031921
15:00+7e44575 0.0 1029973
18:00+2e49785 0.0 1031180
21:00+1e37865 0.0 1031158
27 october, wed
wed2700:000e36915 0.0 1030142
03:00−1e36945 0.0 1030134
06:00−1e39957 0.0 1029212
09:00+3e59745 0.0 1028356
12:00+8e810520 0.0 1025563
15:00+9e810490 0.0 1024536
18:00+4e59690 0.0 1026223
21:00+2e35810 0.0 1026103
28 october, thu
thu2800:00+1ese22860 0.0 102517
03:00+2se11780 0.0 102510
06:00+2s11660 0.0 102510
09:00+8w11450 0.0 1025114
12:00+13nw35310 0.0 1023641
15:00+14nw45300 0.0 1022801
18:00+7wnw22550 0.0 102410
21:00+5wsw22610 0.0 102510
29 october, fri
fri2900:00+4w11620 0.0 102510
03:00+3w226551 0.0 102511
06:00+3wsw2265100 0.0 102611
09:00+7w2252100 0.0 1026171
12:00+11nw334492 0.0 1024591
15:00+12nnw33405 0.0 1024811
18:00+7ne11555 0.0 102610
21:00+5ese11611 0.0 102610